Regional Weather Roundup
Issued by NWS Boston, MA

Current Version | Previous Version | Text Only | Print | Product List | Glossary Off
Versions: 1 2 3 4 5 6 7 8 9 10 11 12 13 14 15 16 17 18 19 20 21 22 23 24 25 26 27 28 29 30 31 32 33 34 35 36 37 38 39 40 41 42 43 44 45 46 47 48 49 50
000 ASUS41 KBOX 181700 RWRBOX REGIONAL WEATHER ROUNDUP NATIONAL WEATHER SERVICE BOSTON/NORTON MA 1200 PM EST FRI JAN 18 2019 NOTE: "FAIR" INDICATES FEW OR NO CLOUDS BELOW 12,000 FEET WITH NO SIGNIFICANT WEATHER AND/OR OBSTRUCTIONS TO VISIBILITY. MAZALL-181800- EASTERN MASSACHUSETTS CITY SKY/WX TMP DP RH WIND PRES REMARKS BOSTON PTSUNNY 39 29 67 SE5 30.09F BEVERLY CLOUDY 37 25 61 S10 30.08F WCI 30 LAWRENCE CLOUDY 32 18 56 CALM 30.10F BEDFORD CLOUDY 34 18 52 CALM 30.08F BLUE HILL N/A 36 28 73 SE7 30.04F WCI 30 NORWOOD CLOUDY 40 29 64 SE6 30.08F MARSHFIELD NOT AVBL PLYMOUTH PTSUNNY 37 31 78 SE7 30.08F WCI 32 TAUNTON FAIR 39 29 67 SE8 30.08F NEW BEDFORD CLOUDY 37 33 85 VRB5 30.08F $$ MAZALL-181800- CAPE COD AND THE ISLANDS CITY SKY/WX TMP DP RH WIND PRES REMARKS FALMOUTH CLOUDY 36 32 87 E9 30.09F WCI 29 HYANNIS CLOUDY 38 32 79 E8 30.07F CHATHAM LGT RAIN 37 33 85 E8 30.09F WCI 31 PROVINCETOWN CLOUDY 38 31 76 SE8 30.10F NANTUCKET LGT RAIN 36 35 96 NE12 30.07F WCI 28 MARTHAS VNYRD MIX PCPN 36 35 96 NE8 30.08F WCI 30 $$ MAZALL-181800- CENTRAL AND WESTERN MASSACHUSETTS CITY SKY/WX TMP DP RH WIND PRES REMARKS WORCESTER CLOUDY 30 24 78 S5 30.03F WCI 25 FITCHBURG CLOUDY 30 19 63 SE8 30.07F WCI 22 ORANGE CLOUDY 31 22 69 S6 30.06F WCI 25 SPRINGFIELD CLOUDY 32 19 59 CALM 30.06F WESTFIELD CLOUDY 30 18 60 SW5 30.07F WCI 25 NORTH ADAMS CLOUDY 30 24 78 VRB3 30.02F PITTSFIELD CLOUDY 29 23 78 VRB3 29.99F $$ RIZALL-181800- RHODE ISLAND CITY SKY/WX TMP DP RH WIND PRES REMARKS PROVIDENCE PTSUNNY 37 29 72 E3 30.10F NEWPORT CLOUDY 37 32 82 E5 30.08F BLOCK ISLAND CLOUDY 39 35 86 E8 30.08 SMITHFIELD CLOUDY 33 25 72 VRB3 30.07F WESTERLY CLOUDY 40 33 76 E7 30.09F $$ CTZALL-181800- CONNECTICUT CITY SKY/WX TMP DP RH WIND PRES REMARKS BRADLEY INTL CLOUDY 32 22 66 S3 30.08F HARTFORD CLOUDY 33 25 72 CALM 30.09F BRIDGEPORT CLOUDY 36 31 82 CALM 30.10F DANBURY CLOUDY 34 27 75 CALM 30.08F GROTON CLOUDY 39 32 76 E7 30.08F NEW HAVEN CLOUDY 36 29 75 CALM 30.09F CHESTER CLOUDY 34 30 86 CALM 30.07F MERIDEN CLOUDY 33 25 72 NW3 30.09F WILLIMANTIC CLOUDY 32 26 78 CALM 30.08F OXFORD CLOUDY 35 30 82 VRB5 30.06F WCI 31 $$ MEZ002-015-021-024-NHZ003-005-008-011-012-014-VTZ005-008-181800- NORTHERN NEW ENGLAND CITY SKY/WX TMP DP RH WIND PRES REMARKS PORTLAND ME CLOUDY 26 12 55 CALM 30.10F BANGOR ME LGT SNOW 27 24 89 CALM 30.09F FOG CONCORD NH CLOUDY 24 12 60 CALM 30.08F MANCHESTER NH CLOUDY 28 14 55 CALM 30.07F NASHUA NH CLOUDY 30 17 58 SE6 30.09F WCI 24 PORTSMOUTH NH CLOUDY 31 13 48 CALM 30.07F JAFFREY NH CLOUDY 31 25 78 S7 30.01F WCI 24 KEENE NH CLOUDY 28 20 71 CALM 30.05F BURLINGTON VT CLOUDY 28 21 75 S14G23 29.96F WCI 17 MT. WASHINGTON DRFTSNOW 9 9 100 SW33G43 N/A VSB 1/16WCI -15 $$ NYZ052-076-181800- EASTERN NEW YORK CITY SKY/WX TMP DP RH WIND PRES REMARKS ALBANY FLURRIES 31 24 75 S15 30.04F WCI 20 NEW YORK CITY CLOUDY 36 32 85 NE8 30.09F WCI 30 $$ ANZALL-181800- MARINE OBSERVATIONS STATION/POSITION TIME TEMP WIND PRES VSBY WAVE AIR SEA DIR/SP/G HT/PER (UTC) (F) (DEG/KT/KT) (MB) (MI) (FT/S) BOSTON BUOY 1550 36 42 130/ 10/ 14 1020.2 2/ 3 BUZZARDS BAY 1600 35 80/ 10/ 11 1020.2F NANTUCKET SOUND 1640 35 36 90/ 12/ 14 1019.1F MASS BAY-STELLWA 1604 37 42 170/ 10/ 14 1019.2F 1 7/8 2/ 4 ISLE OF SHOALS 1600 35 180/ 12/ 14 1019.8F S OF BLOCK IS 1630 45 N/A 4/ 6 $$ ......................KEY......................... SKY/WX - SKY CONDITION/PRESENT WEATHER TMP - TEMPERATURE IN FAHRENHEIT DWPT - DEWPOINT IN FAHRENHEIT RH - RELATIVE HUMIDITY IN PERCENT WIND - DIRECTION AND SPEED IN MPH PRES - MEAN SEA LEVEL PRESSURE IN INCHES OF HG WCI - WIND CHILL INDEX VSB - VISIBILITY IN MILES HX - HEAT INDEX TC - TEMPERATURE IN CELSIUS VRB - VARIABLE WIND DIRECTION N/A - NOT AVAILABLE

USA.gov is the U.S. government's official web portal to all federal, state and local government web resources and services.